EW5684 Weather Reports


Display with metric or nautical units.
time (UTC)temp
F
wind
direction
speed
MPH
gust
MPH
rain 1hr
in
rain 24hr
in
rain mn
in
humidity
%
barometer
mb
20260506050929 54 0 1.0 2.0 0.09 0.16 0.13 66 1009.3
20260506050428 54 0 1.0 2.0 0.06 0.16 0.12 66 1009.4
20260506044929 54 0 0.0 1.0 0.06 0.10 0.10 66 1009.3
20260506044428 54 0 0.0 2.0 0.06 0.11 0.10 65 1009.4
20260506044155 54 0 0.0 3.0 0.06 0.11 0.10 65 1009.5
20260506043428 54 0 1.0 3.0 0.06 0.12 0.09 65 1009.5
20260506042928 54 0 2.0 3.0 0.06 0.13 0.09 65 1009.6
20260506042650 54 0 0.0 2.0 0.06 0.13 0.07 65 1009.6
20260506042144 54 0 1.0 2.0 0.05 0.14 0.07 65 1009.5
20260506041428 54 0 0.0 3.0 0.05 0.17 0.07 65 1009.5
20260506040927 55 0 0.0 3.0 0.05 0.17 0.06 64 1009.6
20260506040428 55 0 2.0 3.0 0.04 0.19 0.06 64 1009.5
20260506040151 55 0 2.0 3.0 0.04 0.17 0.06 64 1009.4
20260506035427 55 0 1.0 2.0 0.04 0.17 0.06 64 1009.6
20260506034927 55 0 0.0 1.0 0.03 0.19 0.05 64 1009.8
20260506034427 55 0 0.0 2.0 0.02 0.20 0.04 64 1009.7
20260506033927 55 0 2.0 2.0 0.02 0.22 0.04 63 1009.7
20260506033427 55 0 0.0 3.0 0.02 0.24 0.03 63 1009.8
20260506032926 55 0 1.0 3.0 0.01 0.25 0.02 63 1009.8
20260506032426 55 0 1.0 3.0 0.01 0.27 0.02 63 1009.8
20260506031927 55 0 1.0 4.0 0.01 0.28 0.02 63 1009.9
20260506031427 55 0 3.0 4.0 0.01 0.30 0.02 63 1009.9
20260506030925 55 0 0.0 0.0 0.00 0.30 0.02 62 1010.1
20260506030426 55 0 0.0 0.0 0.00 0.31 0.02 62 1010.2
20260506030411 55 0 0.0 0.0 0.00 0.31 0.02 62 1010.3
20260506025426 55 0 0.0 0.0 0.00 0.32 0.02 62 1010.3
20260506024926 55 0 0.0 0.0 0.00 0.32 0.02 62 1010.4
20260506024426 55 0 0.0 0.0 0.00 0.32 0.02 62 1010.5
20260506024139 55 0 0.0 0.0 0.00 0.32 0.02 61 1010.5
20260506024122 55 0 0.0 0.0 0.00 0.32 0.02 61 1010.6
20260506022925 55 0 0.0 0.0 0.00 0.32 0.02 61 1010.5
20260506022425 55 0 0.0 0.0 0.00 0.33 0.02 61 1010.6
20260506021925 55 0 0.0 0.0 0.00 0.33 0.02 61 1010.7
20260506021425 55 0 0.0 0.0 0.00 0.33 0.02 61 1010.6
20260506020925 55 0 0.0 0.0 0.00 0.33 0.02 61 1010.5
20260506020425 55 0 0.0 0.0 0.00 0.33 0.02 61 1010.5
20260506015925 55 0 0.0 0.0 0.00 0.33 0.02 60 1010.8
20260506015425 55 0 0.0 0.0 0.00 0.33 0.02 60 1010.8
20260506014923 55 0 0.0 0.0 0.00 0.33 0.02 60 1010.8
20260506014647 55 0 0.0 0.0 0.00 0.33 0.02 60 1010.8
20260506013924 55 0 0.0 0.0 0.00 0.33 0.02 60 1010.7
20260506013424 55 0 0.0 0.0 0.00 0.33 0.02 60 1010.7
20260506012922 55 0 0.0 0.0 0.01 0.33 0.02 60 1010.8
20260506012423 55 0 0.0 0.0 0.01 0.33 0.02 60 1010.9
20260506011923 55 0 0.0 0.0 0.01 0.33 0.02 59 1010.9
20260506011422 55 0 0.0 0.0 0.02 0.33 0.02 59 1010.9
20260506010922 55 0 0.0 0.0 0.02 0.33 0.02 59 1011.0
20260506010423 55 0 0.0 0.0 0.02 0.33 0.02 59 1011.0
20260506005922 55 0 0.0 0.0 0.02 0.31 0.02 59 1011.2
20260506005423 55 0 0.0 0.0 0.02 0.31 0.02 59 1011.1
20260506004924 55 0 0.0 0.0 0.02 0.31 0.02 59 1011.5
20260506004639 55 0 0.0 0.0 0.02 0.31 0.02 59 1011.6
20260506003923 55 0 0.0 0.0 0.02 0.31 0.02 59 1011.7
20260506003423 55 0 0.0 0.0 0.02 0.31 0.02 59 1011.8
20260506003404 55 0 0.0 0.0 0.01 0.32 0.01 59 1011.9
20260506002422 55 0 0.0 0.0 0.01 0.32 0.01 59 1012.0
20260506001923 55 0 0.0 0.0 0.01 0.32 0.01 59 1012.1
20260506001423 55 0 0.0 0.0 0.00 0.32 0.00 59 1012.3
20260506000922 55 0 0.0 0.0 0.00 0.34 0.00 59 1012.4
20260506000423 55 0 0.0 0.0 0.00 0.35 0.00 59 1012.5
20260505235922 56 0 0.0 0.0 0.00 0.35 0.00 59 1012.4
20260505235422 56 0 0.0 0.0 0.00 0.36 0.00 59 1012.4
20260505234921 56 0 0.0 0.0 0.00 0.37 0.00 59 1012.5
20260505234422 56 0 0.0 0.0 0.00 0.37 0.00 58 1012.5
20260505234141 56 0 0.0 0.0 0.00 0.37 0.00 58 1012.5
20260505233643 56 0 0.0 0.0 0.00 0.37 0.00 58 1012.6
20260505232922 56 0 0.0 0.0 0.00 0.37 0.00 58 1012.7
20260505232422 56 0 0.0 0.0 0.00 0.37 0.00 58 1012.7
20260505231921 56 0 0.0 0.0 0.00 0.37 0.00 58 1012.6
20260505231418 56 0 0.0 0.0 0.00 0.37 0.00 58 1012.7
20260505231137 56 0 0.0 0.0 0.00 0.37 0.00 58 1012.7
20260505230636 56 0 0.0 0.0 0.00 0.37 0.00 58 1012.7
20260505225916 56 0 0.0 0.0 0.00 0.37 0.00 58 1012.7
20260505225405 56 0 0.0 0.0 0.00 0.37 0.00 58 1012.7
20260505224906 56 0 0.0 0.0 0.00 0.37 0.00 58 1012.7
20260505224406 56 0 0.0 0.0 0.00 0.37 0.00 58 1012.9
20260505223905 56 0 0.0 0.0 0.00 0.37 0.00 58 1012.9
20260505223406 56 0 0.0 0.0 0.00 0.37 0.00 58 1013.0
20260505222906 56 0 0.0 1.0 0.00 0.37 0.00 58 1013.0
20260505222629 56 0 0.0 1.0 0.00 0.37 0.00 58 1013.0
20260505221906 56 0 0.0 1.0 0.00 0.37 0.00 58 1013.0
20260505221406 56 0 0.0 3.0 0.00 0.37 0.00 57 1013.1
20260505220905 56 0 0.0 3.0 0.00 0.37 0.00 57 1012.9
20260505220405 56 0 0.0 0.0 0.00 0.37 0.00 57 1012.8
20260505220128 56 0 0.0 0.0 0.00 0.37 0.37 57 1012.9
20260505215405 56 0 0.0 0.0 0.00 0.37 0.37 57 1013.1
20260505214906 56 0 0.0 0.0 0.00 0.37 0.37 57 1013.0
20260505214626 56 0 0.0 0.0 0.00 0.37 0.37 57 1012.9
20260505213905 56 0 0.0 0.0 0.00 0.37 0.37 57 1013.0
20260505213406 56 0 0.0 0.0 0.00 0.37 0.37 57 1013.2
20260505212905 56 0 0.0 0.0 0.00 0.37 0.37 57 1013.3
20260505212405 56 0 0.0 0.0 0.00 0.37 0.37 58 1013.5
20260505211905 56 0 0.0 0.0 0.00 0.37 0.37 58 1013.5
20260505211405 56 0 0.0 0.0 0.00 0.37 0.37 58 1013.5
20260505210905 56 0 0.0 0.0 0.00 0.37 0.37 58 1013.5
20260505210405 55 0 0.0 0.0 0.00 0.37 0.37 58 1013.4
20260505210128 55 0 0.0 0.0 0.00 0.37 0.37 58 1013.3
20260505205406 55 0 0.0 0.0 0.00 0.37 0.37 58 1013.4
20260505204906 55 0 0.0 0.0 0.00 0.37 0.37 58 1013.4
20260505204405 55 0 0.0 0.0 0.00 0.37 0.37 58 1013.5
20260505203907 55 0 0.0 0.0 0.00 0.37 0.37 58 1013.5
20260505203635 55 0 0.0 0.0 0.00 0.37 0.37 58 1013.4
20260505202906 55 0 0.0 0.0 0.00 0.37 0.37 58 1013.5
20260505202405 55 0 0.0 0.0 0.00 0.37 0.37 58 1013.5
20260505201904 56 0 0.0 1.0 0.00 0.37 0.37 58 1013.5
20260505201623 56 0 0.0 1.0 0.00 0.37 0.37 58 1013.4
20260505200904 56 0 0.0 2.0 0.00 0.37 0.37 58 1013.4
20260505200404 56 0 1.0 2.0 0.00 0.37 0.37 58 1013.4
20260505195905 56 0 0.0 1.0 0.00 0.37 0.37 58 1013.3
20260505195404 56 0 0.0 1.0 0.00 0.37 0.37 58 1013.3
20260505194905 56 0 0.0 3.0 0.00 0.37 0.37 58 1013.4
20260505194402 56 0 1.0 3.0 0.00 0.37 0.37 58 1013.3
20260505193904 56 0 1.0 3.0 0.00 0.37 0.37 58 1013.5
20260505193405 56 0 0.0 0.0 0.00 0.37 0.37 58 1013.4
20260505193129 56 0 0.0 2.0 0.00 0.37 0.37 57 1013.4
20260505192405 56 0 1.0 2.0 0.00 0.37 0.37 57 1013.3
20260505191904 56 0 0.0 1.0 0.00 0.37 0.37 57 1013.3
20260505191404 56 0 0.0 1.0 0.00 0.37 0.37 57 1013.2
20260505190905 56 0 0.0 1.0 0.00 0.37 0.37 57 1013.1
20260505190405 56 0 1.0 1.0 0.00 0.37 0.37 57 1013.1
20260505185904 56 0 0.0 0.0 0.00 0.37 0.37 57 1013.1
20260505185404 56 0 0.0 0.0 0.00 0.37 0.37 57 1013.1
20260505184905 56 0 0.0 0.0 0.00 0.37 0.37 57 1013.0
20260505184404 57 0 0.0 0.0 0.00 0.37 0.37 57 1013.0
20260505183904 57 0 0.0 0.0 0.00 0.37 0.37 57 1013.1
20260505183625 57 0 0.0 0.0 0.00 0.37 0.37 57 1013.1
20260505182904 57 0 0.0 2.0 0.00 0.37 0.37 57 1013.1
20260505182405 57 0 0.0 2.0 0.00 0.37 0.37 57 1013.0
20260505181905 57 0 0.0 1.0 0.00 0.37 0.37 56 1013.0
20260505181404 57 0 0.0 0.0 0.00 0.37 0.37 56 1013.0
20260505180904 57 0 0.0 0.0 0.00 0.37 0.37 56 1013.0
20260505180405 57 0 0.0 0.0 0.00 0.38 0.37 56 1013.0
20260505175904 58 0 0.0 1.0 0.00 0.38 0.37 56 1013.1
20260505175404 58 0 0.0 1.0 0.00 0.38 0.37 56 1013.0
20260505174905 58 0 0.0 1.0 0.00 0.38 0.37 56 1013.0
20260505174404 58 0 0.0 1.0 0.00 0.38 0.37 56 1013.1
20260505173904 58 0 0.0 1.0 0.00 0.39 0.37 56 1013.1
20260505173405 58 0 0.0 2.0 0.00 0.39 0.37 56 1013.1
20260505172904 58 0 1.0 2.0 0.00 0.39 0.37 56 1013.1
20260505172405 58 0 0.0 3.0 0.00 0.39 0.37 56 1013.0
20260505171905 58 0 0.0 3.0 0.00 0.39 0.37 56 1013.1
20260505171404 58 0 1.0 3.0 0.00 0.40 0.37 55 1013.1
20260505171124 58 0 1.0 3.0 0.00 0.40 0.37 55 1013.1
20260505170404 58 0 1.0 3.0 0.00 0.40 0.37 55 1013.2
20260505170134 58 0 2.0 3.0 0.00 0.40 0.37 54 1013.1
20260505165404 58 0 2.0 3.0 0.00 0.40 0.37 54 1013.2
20260505164904 58 0 2.0 4.0 0.00 0.40 0.37 54 1013.2
20260505164405 58 0 3.0 4.0 0.00 0.40 0.37 55 1013.3
20260505163904 58 0 2.0 5.0 0.00 0.40 0.37 54 1013.2
20260505163405 59 0 4.0 5.0 0.00 0.40 0.37 54 1013.2
20260505162905 59 0 2.0 4.0 0.00 0.40 0.37 54 1013.3
20260505162404 59 0 2.0 5.0 0.00 0.40 0.37 54 1013.4
20260505161905 59 0 3.0 6.0 0.00 0.40 0.37 54 1013.4
20260505161405 59 0 1.0 6.0 0.00 0.40 0.37 53 1013.3
20260505160905 59 0 4.0 5.0 0.00 0.40 0.37 53 1013.4
20260505160404 59 0 3.0 5.0 0.00 0.40 0.37 53 1013.2
20260505152905 59 0 2.0 6.0 0.00 0.40 0.37 52 1013.4
20260505152404 60 0 2.0 6.0 0.00 0.40 0.37 53 1013.3
20260505152126 60 0 1.0 4.0 0.00 0.40 0.37 53 1013.3
20260505151404 59 0 0.0 4.0 0.00 0.40 0.37 53 1013.3
20260505150905 59 0 1.0 4.0 0.00 0.40 0.37 52 1013.3
20260505150404 59 0 4.0 4.0 0.00 0.40 0.37 53 1013.4
20260505140404 57 0 1.0 3.0 0.00 0.40 0.37 57 1013.8
20260505124904 55 0 1.0 4.0 0.00 0.40 0.37 65 1014.3
20260505124404 54 0 2.0 4.0 0.00 0.40 0.37 65 1014.2
20260505123904 54 0 4.0 4.0 0.00 0.40 0.37 65 1014.4
20260505123404 54 0 2.0 4.0 0.00 0.40 0.37 65 1014.4
20260505122905 54 0 4.0 4.0 0.00 0.40 0.37 65 1014.4
20260505122405 54 0 2.0 4.0 0.00 0.40 0.37 65 1014.5
20260505121905 54 0 1.0 4.0 0.00 0.40 0.37 65 1014.5
20260505121623 54 0 0.0 5.0 0.00 0.40 0.37 65 1014.5
20260505121127 54 0 1.0 5.0 0.00 0.40 0.37 65 1014.4
20260505120632 54 0 2.0 4.0 0.00 0.40 0.37 66 1014.5
20260505115906 54 0 1.0 6.0 0.00 0.40 0.37 66 1014.5
20260505115406 53 0 2.0 6.0 0.00 0.40 0.37 65 1014.6
20260505114906 54 0 1.0 4.0 0.00 0.40 0.37 66 1014.6
20260505114406 54 0 3.0 4.0 0.00 0.40 0.37 65 1014.6
20260505113906 54 0 1.0 4.0 0.00 0.40 0.37 66 1014.6
20260505113350 54 0 2.0 4.0 0.00 0.40 0.37 66 1014.7
20260505112833 54 0 1.0 4.0 0.00 0.40 0.37 66 1014.6
20260505112307 54 0 1.0 4.0 0.00 0.40 0.37 66 1014.7
20260505111805 54 0 2.0 5.0 0.00 0.40 0.37 66 1014.7
20260505111305 53 0 2.0 5.0 0.00 0.40 0.37 66 1014.7
20260505110805 53 0 2.0 3.0 0.00 0.40 0.37 66 1014.8
20260505110305 53 0 2.0 4.0 0.00 0.40 0.37 65 1014.9
20260505101804 53 0 3.0 5.0 0.02 0.40 0.37 65 1015.1
20260505101304 53 0 3.0 5.0 0.02 0.40 0.37 65 1015.1
20260505100804 52 0 3.0 6.0 0.02 0.40 0.37 65 1015.1
20260505100304 52 0 5.0 6.0 0.02 0.40 0.37 64 1015.0
20260505095804 52 0 5.0 6.0 0.03 0.38 0.37 64 1015.1
20260505095305 52 0 3.0 6.0 0.03 0.38 0.37 63 1015.1
20260505095023 52 0 6.0 6.0 0.03 0.38 0.36 62 1015.0
20260505094304 52 0 5.0 6.0 0.02 0.38 0.36 62 1015.0
20260505093803 52 0 4.0 7.0 0.03 0.38 0.36 61 1014.9
20260505093304 52 0 5.0 7.0 0.03 0.38 0.36 61 1015.0
20260505092803 52 0 4.0 6.0 0.03 0.38 0.36 61 1015.0
20260505092523 52 0 3.0 6.0 0.02 0.38 0.35 60 1014.9
20260505091803 52 0 5.0 6.0 0.03 0.38 0.35 60 1015.0
20260505091302 52 0 5.0 6.0 0.03 0.38 0.35 60 1014.9
20260505090803 52 0 4.0 6.0 0.03 0.38 0.35 60 1014.9
20260505090303 52 0 2.0 3.0 0.02 0.38 0.35 60 1015.0
20260505085803 53 0 2.0 3.0 0.02 0.35 0.34 60 1014.9
20260505085304 52 0 1.0 2.0 0.02 0.35 0.34 60 1014.8
20260505084802 52 0 0.0 2.0 0.02 0.35 0.34 59 1014.8
20260505084302 52 0 1.0 2.0 0.02 0.35 0.34 60 1014.8
20260505083802 52 0 0.0 4.0 0.01 0.35 0.33 59 1014.8
20260505083302 52 0 1.0 4.0 0.01 0.35 0.33 59 1014.8
20260505083023 52 0 2.0 3.0 0.01 0.35 0.33 59 1014.8
20260505082304 52 0 0.0 3.0 0.01 0.35 0.33 59 1014.9
20260505081801 52 0 0.0 3.0 0.00 0.35 0.32 59 1014.8
20260505081301 52 0 2.0 3.0 0.00 0.35 0.32 59 1014.8
20260505080802 52 0 1.0 3.0 0.00 0.35 0.32 59 1014.7
20260505080301 52 0 1.0 2.0 0.00 0.35 0.32 59 1014.5
20260505075801 52 0 0.0 3.0 0.00 0.35 0.32 59 1014.6
20260505075304 52 0 1.0 3.0 0.00 0.35 0.32 59 1014.6
20260505074801 52 0 1.0 3.0 0.00 0.35 0.32 59 1014.7
20260505074300 52 0 2.0 5.0 0.00 0.35 0.32 59 1014.6
20260505073801 52 0 3.0 5.0 0.00 0.35 0.32 59 1014.6
20260505073509 52 0 4.0 5.0 0.00 0.35 0.32 61 1014.6
20260505073459 52 0 3.0 5.0 0.00 0.35 0.32 60 1014.6
20260505072301 52 0 3.0 4.0 0.00 0.35 0.32 61 1014.5
20260505071800 52 0 3.0 4.0 0.00 0.35 0.32 61 1014.5
20260505071300 52 0 2.0 2.0 0.00 0.35 0.32 62 1014.6
20260505070800 52 0 0.0 2.0 0.00 0.35 0.32 62 1014.6
20260505070300 52 0 0.0 4.0 0.00 0.35 0.32 62 1014.5
20260505065800 52 0 1.0 4.0 0.00 0.35 0.32 63 1014.4
20260505065259 52 0 2.0 3.0 0.00 0.35 0.32 64 1014.3
20260505065017 52 0 0.0 3.0 0.00 0.35 0.32 64 1014.4
20260505064300 52 0 2.0 3.0 0.00 0.35 0.32 64 1014.3
20260505064025 52 0 2.0 2.0 0.00 0.35 0.32 64 1014.2
20260505063259 52 0 0.0 3.0 0.00 0.35 0.32 65 1014.2
20260505062800 52 0 1.0 3.0 0.00 0.35 0.32 65 1014.2
20260505062517 52 0 2.0 4.0 0.00 0.35 0.32 65 1014.2
20260505061758 51 0 2.0 4.0 0.00 0.35 0.32 65 1014.1
20260505061259 51 0 2.0 5.0 0.00 0.35 0.32 65 1014.0
20260505060759 51 0 2.0 7.0 0.00 0.35 0.32 65 1014.0
20260505060259 51 0 5.0 7.0 0.00 0.35 0.32 65 1013.9
20260505060020 51 0 4.0 10.0 0.00 0.35 0.32 65 1013.9
20260505055258 51 0 6.0 10.0 0.00 0.35 0.32 65 1013.9
20260505054758 51 0 4.0 6.0 0.00 0.35 0.32 65 1013.8